Time,TemperatureF,DewpointF,PressureIn,WindDirection,WindDirectionDegrees,WindSpeedMPH,WindSpeedGustMPH,Humidity,HourlyPrecipIn,Conditions,Clouds,dailyrainin,SolarRadiationWatts/m^2,SoftwareType,DateUTC
2013-05-21 00:02:00,45.0,34.0,-100.00,ENE,76,7.0,12.0,65,0.00,,,0.00,0.000000,,2013-05-21 06:02:00,
2013-05-21 00:11:00,45.0,34.0,-100.00,ENE,76,7.0,12.0,65,0.00,,,0.00,0.000000,,2013-05-21 06:11:00,
2013-05-21 00:32:00,45.0,35.0,-100.00,ENE,72,7.0,13.0,68,0.00,,,0.00,0.000000,,2013-05-21 06:32:00,
2013-05-21 00:42:00,45.0,35.0,-100.00,ENE,72,7.0,13.0,68,0.00,,,0.00,0.000000,,2013-05-21 06:42:00,
2013-05-21 00:52:00,45.0,35.0,-100.00,ENE,72,7.0,13.0,68,0.00,,,0.00,0.000000,,2013-05-21 06:52:00,
2013-05-21 01:01:00,45.0,35.0,-100.00,ENE,72,7.0,13.0,68,0.00,,,0.00,0.000000,,2013-05-21 07:01:00,
2013-05-21 01:11:00,45.0,35.0,-100.00,ENE,72,7.0,13.0,68,0.00,,,0.00,0.000000,,2013-05-21 07:11:00,
2013-05-21 01:32:00,43.0,34.0,-100.00,ENE,78,8.0,14.0,71,0.00,,,0.00,0.000000,,2013-05-21 07:32:00,
2013-05-21 01:42:00,43.0,34.0,-100.00,ENE,78,8.0,14.0,71,0.00,,,0.00,0.000000,,2013-05-21 07:42:00,
2013-05-21 01:52:00,43.0,34.0,-100.00,ENE,78,8.0,14.0,71,0.00,,,0.00,0.000000,,2013-05-21 07:52:00,
2013-05-21 02:01:00,43.0,34.0,-100.00,ENE,78,8.0,14.0,71,0.00,,,0.00,0.000000,,2013-05-21 08:01:00,
2013-05-21 02:11:00,43.0,34.0,-100.00,ENE,78,8.0,14.0,71,0.00,,,0.00,0.000000,,2013-05-21 08:11:00,
2013-05-21 03:33:00,41.0,34.0,-100.00,ENE,69,6.0,13.0,77,-99.99,,,-99.99,0.000000,,2013-05-21 09:33:00,
2013-05-21 03:42:00,41.0,34.0,-100.00,ENE,69,6.0,13.0,77,-99.99,,,-99.99,0.000000,,2013-05-21 09:42:00,
2013-05-21 03:53:00,41.0,34.0,-100.00,ENE,69,6.0,13.0,77,-99.99,,,-99.99,0.000000,,2013-05-21 09:53:00,
2013-05-21 04:02:00,41.0,34.0,-100.00,ENE,69,6.0,13.0,77,-99.99,,,-99.99,0.000000,,2013-05-21 10:02:00,
2013-05-21 04:12:00,41.0,34.0,-100.00,ENE,69,6.0,13.0,77,-99.99,,,-99.99,0.000000,,2013-05-21 10:12:00,
2013-05-21 04:33:00,41.0,34.0,-100.00,ENE,61,5.0,12.0,76,0.00,,,0.00,0.000000,,2013-05-21 10:33:00,
2013-05-21 04:42:00,41.0,34.0,-100.00,ENE,61,5.0,12.0,76,0.00,,,0.00,0.000000,,2013-05-21 10:42:00,
2013-05-21 04:52:00,41.0,34.0,-100.00,ENE,61,5.0,12.0,76,0.00,,,0.00,0.000000,,2013-05-21 10:52:00,
2013-05-21 05:02:00,41.0,34.0,-100.00,ENE,61,5.0,12.0,76,0.00,,,0.00,0.000000,,2013-05-21 11:02:00,
2013-05-21 05:11:00,41.0,34.0,-100.00,ENE,61,5.0,12.0,76,0.00,,,0.00,0.000000,,2013-05-21 11:11:00,
2013-05-21 05:42:00,42.0,34.0,-100.00,ENE,70,6.0,11.0,73,0.00,,,0.00,0.000000,,2013-05-21 11:42:00,
2013-05-21 05:52:00,42.0,34.0,-100.00,ENE,70,6.0,11.0,73,0.00,,,0.00,0.000000,,2013-05-21 11:52:00,
2013-05-21 06:01:00,42.0,34.0,-100.00,ENE,70,6.0,11.0,73,0.00,,,0.00,0.000000,,2013-05-21 12:01:00,
2013-05-21 06:11:00,42.0,34.0,-100.00,ENE,70,6.0,11.0,73,0.00,,,0.00,0.000000,,2013-05-21 12:11:00,
2013-05-21 06:32:00,41.0,32.0,-100.00,ENE,69,4.0,9.0,71,0.00,,,0.00,0.000000,,2013-05-21 12:32:00,
2013-05-21 06:42:00,41.0,32.0,-100.00,ENE,69,4.0,9.0,71,0.00,,,0.00,0.000000,,2013-05-21 12:42:00,
2013-05-21 06:52:00,41.0,32.0,-100.00,ENE,69,4.0,9.0,71,0.00,,,0.00,0.000000,,2013-05-21 12:52:00,
2013-05-21 07:01:00,41.0,32.0,-100.00,ENE,69,4.0,9.0,71,0.00,,,0.00,0.000000,,2013-05-21 13:01:00,
2013-05-21 07:11:00,41.0,32.0,-100.00,ENE,69,4.0,9.0,71,0.00,,,0.00,0.000000,,2013-05-21 13:11:00,
2013-05-21 07:32:00,43.0,32.0,-100.00,East,82,5.0,12.0,66,0.00,,,-99.99,3.000000,,2013-05-21 13:32:00,
2013-05-21 07:42:00,43.0,32.0,-100.00,East,82,5.0,12.0,66,0.00,,,-99.99,3.000000,,2013-05-21 13:42:00,
2013-05-21 07:52:00,43.0,32.0,-100.00,East,82,5.0,12.0,66,0.00,,,-99.99,3.000000,,2013-05-21 13:52:00,
2013-05-21 08:01:00,43.0,32.0,-100.00,East,82,5.0,12.0,66,0.00,,,-99.99,3.000000,,2013-05-21 14:01:00,
2013-05-21 08:11:00,43.0,32.0,-100.00,East,82,5.0,12.0,66,0.00,,,-99.99,3.000000,,2013-05-21 14:11:00,
2013-05-21 08:42:00,45.0,33.0,-100.00,East,86,6.0,12.0,62,0.00,,,0.00,64.000000,,2013-05-21 14:42:00,
2013-05-21 08:52:00,45.0,33.0,-100.00,East,86,6.0,12.0,62,0.00,,,0.00,64.000000,,2013-05-21 14:52:00,
2013-05-21 09:01:00,45.0,33.0,-100.00,East,86,6.0,12.0,62,0.00,,,0.00,64.000000,,2013-05-21 15:01:00,
2013-05-21 09:11:00,45.0,33.0,-100.00,East,86,6.0,12.0,62,0.00,,,0.00,64.000000,,2013-05-21 15:11:00,
2013-05-21 10:32:00,54.0,38.0,-100.00,ESE,117,5.0,10.0,54,-99.99,,,0.00,548.000000,,2013-05-21 16:32:00,
2013-05-21 10:42:00,54.0,38.0,-100.00,ESE,117,5.0,10.0,54,-99.99,,,0.00,548.000000,,2013-05-21 16:42:00,
2013-05-21 10:52:00,54.0,38.0,-100.00,ESE,117,5.0,10.0,54,-99.99,,,0.00,548.000000,,2013-05-21 16:52:00,
2013-05-21 11:02:00,54.0,38.0,-100.00,ESE,117,5.0,10.0,54,-99.99,,,0.00,548.000000,,2013-05-21 17:02:00,
2013-05-21 11:11:00,54.0,38.0,-100.00,ESE,117,5.0,10.0,54,-99.99,,,0.00,548.000000,,2013-05-21 17:11:00,
2013-05-21 11:44:00,54.0,36.0,-100.00,ESE,119,6.0,12.0,51,0.00,,,0.00,473.000000,,2013-05-21 17:44:00,
2013-05-21 11:52:00,54.0,36.0,-100.00,ESE,119,6.0,12.0,51,0.00,,,0.00,473.000000,,2013-05-21 17:52:00,
2013-05-21 12:01:00,54.0,36.0,-100.00,ESE,119,6.0,12.0,51,0.00,,,0.00,473.000000,,2013-05-21 18:01:00,
2013-05-21 12:11:00,54.0,36.0,-100.00,ESE,119,6.0,12.0,51,0.00,,,0.00,473.000000,,2013-05-21 18:11:00,
2013-05-21 12:32:00,59.0,37.0,-100.00,ESE,119,7.0,18.0,44,0.00,,,0.00,878.000000,,2013-05-21 18:32:00,
2013-05-21 12:42:00,59.0,37.0,-100.00,ESE,119,7.0,18.0,44,0.00,,,0.00,878.000000,,2013-05-21 18:42:00,
2013-05-21 12:52:00,59.0,37.0,-100.00,ESE,119,7.0,18.0,44,0.00,,,0.00,878.000000,,2013-05-21 18:52:00,
2013-05-21 13:01:00,59.0,37.0,-100.00,ESE,119,7.0,18.0,44,0.00,,,0.00,878.000000,,2013-05-21 19:01:00,
2013-05-21 13:11:00,59.0,37.0,-100.00,ESE,119,7.0,18.0,44,0.00,,,0.00,878.000000,,2013-05-21 19:11:00,
2013-05-21 13:32:00,58.0,36.0,-100.00,ESE,119,6.0,14.0,43,0.00,,,-99.99,754.000000,,2013-05-21 19:32:00,
2013-05-21 13:42:00,58.0,36.0,-100.00,ESE,119,6.0,14.0,43,0.00,,,-99.99,754.000000,,2013-05-21 19:42:00,
2013-05-21 13:52:00,58.0,36.0,-100.00,ESE,119,6.0,14.0,43,0.00,,,-99.99,754.000000,,2013-05-21 19:52:00,
2013-05-21 14:03:00,58.0,36.0,-100.00,ESE,119,6.0,14.0,43,0.00,,,-99.99,754.000000,,2013-05-21 20:03:00,
2013-05-21 14:11:00,58.0,36.0,-100.00,ESE,119,6.0,14.0,43,0.00,,,-99.99,754.000000,,2013-05-21 20:11:00,
2013-05-21 14:32:00,60.0,33.0,-100.00,SE,127,6.0,15.0,36,0.00,,,0.00,751.000000,,2013-05-21 20:32:00,
2013-05-21 14:42:00,60.0,33.0,-100.00,SE,127,6.0,15.0,36,0.00,,,0.00,751.000000,,2013-05-21 20:42:00,
2013-05-21 14:52:00,60.0,33.0,-100.00,SE,127,6.0,15.0,36,0.00,,,0.00,751.000000,,2013-05-21 20:52:00,
2013-05-21 15:01:00,60.0,33.0,-100.00,SE,127,6.0,15.0,36,0.00,,,0.00,751.000000,,2013-05-21 21:01:00,
2013-05-21 15:11:00,60.0,33.0,-100.00,SE,127,6.0,15.0,36,0.00,,,0.00,751.000000,,2013-05-21 21:11:00,
2013-05-21 15:33:00,59.0,32.0,-100.00,ESE,117,7.0,15.0,36,0.00,,,-99.99,475.000000,,2013-05-21 21:33:00,
2013-05-21 15:43:00,59.0,32.0,-100.00,ESE,117,7.0,15.0,36,0.00,,,-99.99,475.000000,,2013-05-21 21:43:00,
2013-05-21 15:54:00,59.0,32.0,-100.00,ESE,117,7.0,15.0,36,0.00,,,-99.99,475.000000,,2013-05-21 21:54:00,
2013-05-21 16:02:00,59.0,32.0,-100.00,ESE,117,7.0,15.0,36,0.00,,,-99.99,475.000000,,2013-05-21 22:02:00,
2013-05-21 16:12:00,59.0,32.0,-100.00,ESE,117,7.0,15.0,36,0.00,,,-99.99,475.000000,,2013-05-21 22:12:00,
2013-05-21 16:33:00,57.0,39.0,-100.00,ESE,106,8.0,17.0,51,0.00,,,0.00,442.000000,,2013-05-21 22:33:00,
2013-05-21 16:42:00,57.0,39.0,-100.00,ESE,106,8.0,17.0,51,0.00,,,0.00,442.000000,,2013-05-21 22:42:00,
2013-05-21 16:52:00,57.0,39.0,-100.00,ESE,106,8.0,17.0,51,0.00,,,0.00,442.000000,,2013-05-21 22:52:00,
2013-05-21 17:02:00,57.0,39.0,-100.00,ESE,106,8.0,17.0,51,0.00,,,0.00,442.000000,,2013-05-21 23:02:00,
2013-05-21 17:12:00,57.0,39.0,-100.00,ESE,106,8.0,17.0,51,0.00,,,0.00,442.000000,,2013-05-21 23:12:00,
2013-05-21 17:32:00,56.0,32.0,-100.00,SE,127,5.0,20.0,40,0.00,,,0.00,261.000000,,2013-05-21 23:32:00,
2013-05-21 17:42:00,56.0,32.0,-100.00,SE,127,5.0,20.0,40,0.00,,,0.00,261.000000,,2013-05-21 23:42:00,
2013-05-21 17:52:00,56.0,32.0,-100.00,SE,127,5.0,20.0,40,0.00,,,0.00,261.000000,,2013-05-21 23:52:00,
2013-05-21 18:01:00,56.0,32.0,-100.00,SE,127,5.0,20.0,40,0.00,,,0.00,261.000000,,2013-05-22 00:01:00,
2013-05-21 18:11:00,56.0,32.0,-100.00,SE,127,5.0,20.0,40,0.00,,,0.00,261.000000,,2013-05-22 00:11:00,
2013-05-21 19:32:00,53.0,41.0,-100.00,East,82,7.0,23.0,63,-99.99,,,0.00,358.000000,,2013-05-22 01:32:00,
2013-05-21 19:42:00,53.0,41.0,-100.00,East,82,7.0,23.0,63,-99.99,,,0.00,358.000000,,2013-05-22 01:42:00,
2013-05-21 19:52:00,53.0,41.0,-100.00,East,82,7.0,23.0,63,-99.99,,,0.00,358.000000,,2013-05-22 01:52:00,
2013-05-21 20:01:00,53.0,41.0,-100.00,East,82,7.0,23.0,63,-99.99,,,0.00,358.000000,,2013-05-22 02:01:00,
2013-05-21 20:11:00,53.0,41.0,-100.00,East,82,7.0,23.0,63,-99.99,,,0.00,358.000000,,2013-05-22 02:11:00,
2013-05-21 20:32:00,51.0,38.0,-100.00,ENE,72,6.0,15.0,60,0.00,,,0.00,81.000000,,2013-05-22 02:32:00,
2013-05-21 20:42:00,51.0,38.0,-100.00,ENE,72,6.0,15.0,60,0.00,,,0.00,81.000000,,2013-05-22 02:42:00,
2013-05-21 20:52:00,51.0,38.0,-100.00,ENE,72,6.0,15.0,60,0.00,,,0.00,81.000000,,2013-05-22 02:52:00,
2013-05-21 21:01:00,51.0,38.0,-100.00,ENE,72,6.0,15.0,60,0.00,,,0.00,81.000000,,2013-05-22 03:01:00,
2013-05-21 21:11:00,51.0,38.0,-100.00,ENE,72,6.0,15.0,60,0.00,,,0.00,81.000000,,2013-05-22 03:11:00,
2013-05-21 21:33:00,49.0,36.0,-100.00,East,88,8.0,21.0,60,0.00,,,0.00,35.000000,,2013-05-22 03:33:00,
2013-05-21 21:43:00,49.0,36.0,-100.00,East,88,8.0,21.0,60,0.00,,,0.00,35.000000,,2013-05-22 03:43:00,
2013-05-21 21:53:00,49.0,36.0,-100.00,East,88,8.0,21.0,60,0.00,,,0.00,35.000000,,2013-05-22 03:53:00,
2013-05-21 22:03:00,49.0,36.0,-100.00,East,88,8.0,21.0,60,0.00,,,0.00,35.000000,,2013-05-22 04:03:00,
2013-05-21 22:12:00,49.0,36.0,-100.00,East,88,8.0,21.0,60,0.00,,,0.00,35.000000,,2013-05-22 04:12:00,
2013-05-21 22:33:00,47.0,36.0,-100.00,East,93,7.0,15.0,66,0.00,,,0.00,10.000000,,2013-05-22 04:33:00,
2013-05-21 22:43:00,47.0,36.0,-100.00,East,93,7.0,15.0,66,0.00,,,0.00,10.000000,,2013-05-22 04:43:00,
2013-05-21 22:53:00,47.0,36.0,-100.00,East,93,7.0,15.0,66,0.00,,,0.00,10.000000,,2013-05-22 04:53:00,
2013-05-21 23:02:00,47.0,36.0,-100.00,East,93,7.0,15.0,66,0.00,,,0.00,10.000000,,2013-05-22 05:02:00,
2013-05-21 23:11:00,47.0,36.0,-100.00,East,93,7.0,15.0,66,0.00,,,0.00,10.000000,,2013-05-22 05:11:00,
2013-05-21 23:32:00,46.0,37.0,-100.00,East,88,4.0,13.0,70,0.00,,,0.00,0.000000,,2013-05-22 05:32:00,
2013-05-21 23:42:00,46.0,37.0,-100.00,East,88,4.0,13.0,70,0.00,,,0.00,0.000000,,2013-05-22 05:42:00,
2013-05-21 23:52:00,46.0,37.0,-100.00,East,88,4.0,13.0,70,0.00,,,0.00,0.000000,,2013-05-22 05:52:00,